NOAA 16 DEB

Satellite information

Favourite Embed

Satellite Type and Status

DEBRISIN ORBIT

Key statistics

Satellite NOAA 16 DEB at a glance.

Uptime

9215

Days in orbit

Revolutions

≈ 14.3

Per day

Orbit

SSO

Sun Synchronous Orbit

Inclination

98.7

Latest

Satellite identification and parameters

Extended collection of information and parameters for NOAA 16 DEB.

Object identification

Identified? True

Debris? True

Object name: NOAA 16 DEB

International designator: 2000-055LJ

Object number (NORAD): 41429

Object ID (CCSDS): 41429

Country: UNITED STATES OF AMERICA (US)

Current information (Y/N): Y

RCS size: SMALL

Orbital parameters

Period: 100.801 minutes

Inclination: 98.7175 deg

SMA: 7174.68 km

Apoapsis: 809.523 km

Periapsis: 783.566 km

RAAN: 65.7102 deg

Eccentricy: 0.00180892

Argument of periapsis: 175.322 deg

Mean anomaly: 184.8133 deg

Mean motion: 14.28561649 rev/day

Mean motion (dot): 0.0000611 rev/day2

B* drag term: 0.0024477858 1/REarth

Two-line elements (TLE)

Creation date: Dec. 10, 2025, 10:40 a.m.

Reference frame: TEME

Reference center: EARTH

Epoch: Dec. 10, 2025, 4:32 a.m. UTC

TLE line 0: 0 NOAA 16 DEB

TLE line 1: 1 41429U 00055LJ 25344.18918570 .00006110 00000-0 24478-2 0 9992

TLE line 2: 2 41429 98.7175 65.7102 0018089 175.3220 184.8133 14.28561649506090

Live tracking on map

Real-time ground track for satellite NOAA 16 DEB.

In-orbit conjunctions

There are no conjunctions computed for NOAA 16 DEB, at the moment. Check back to stay up to date, as we update our databases every day.

Go to all conjunctions

Associated space launch

The NOAA K, L and M POES satellites begin the fifth generation of improved environmental monitoring in support of NOAA missions. The instrument payload has significant improvements and additions/deletions. The instrument changes have effected the spacecraft subsystems and data formats.

NOAA 16 DEB was lifted into orbit during the mission ‘Titan II SLV | NOAA 16’, on board a Titan II SLV space rocket.

The launch took place on Sept. 21, 2000, 10:22 a.m. from Space Launch Complex 4W.

For more information about the launch, click the button.

Launch to space Titan II SLV | NOAA 16
Titan II SLV | NOAA 16

Agency: N/A

Status: Launch Successful

Launch date: Sept. 21, 2000, 10:22 a.m. UTC

Rocket: Titan II SLV

Launch pad: Space Launch Complex 4W

Location: Vandenberg SFB, CA, USA

...

Latest news about this satellite

There are no fresh news available about this satellite. Check back as we update our databases every day.


Newsletter sign-up

Weekly statistics, charts and insights to help you stay on top of the space industry.